Content
SEND FEEDBACK

Daily
Averages
Monthly
Summary
Spain

MÁLAGA, SPAIN


Home > Europe > Spain
Elevation: 23 feet     Latitude: 36 40N     Longitude: 004 29W

WEATHER
 
SELECT A DAY
Number of Records: 318,096;   Date Range: 7/1/96 - 7/22/14
 
SHARE

PRINT THIS DATA

[ ← Previous Day ]
WEATHER ALMANAC - MARCH 22, 2013
[ Next Day → ]
[ °C ]   °F
Weather ElementAverageHighLow
Temperature53.7 °F62.6 °F (11:00 am)44.6 °F (5:30 am)
Dewpoint48.7 °F55.4 °F (12:40 pm)42.8 °F (2:30 am)
Humidity83.4 %94 % (1:00 pm)52 % (10:30 am)
Barometer29.87 in29.95 in (12:30 am)29.83 in (3:00 pm)
Wind Speed4.6 mph9.2 mph (5:00 am)
Weather ElementAverage
Visibility6.4 mi
Wind DirectionSSW (186.2 °)

Weather ElementTotal
Precipitation---
Heating Degree Days11.4 (Base 65)
Growing Degree Days3.6 (Base 50)
Averaged from 51 records on March 22, 2013
WEATHER CONDITIONS BREAKOUT
WIND DIRECTION BREAKOUT
WEATHER BY HOUR - MARCH 22, 2013
[ °C ]   °F
Local TimeTemperatureDewpointHumidityBarometerVisibilityWind DirectionWind SpeedGust SpeedPrecipitationEventsConditions
12:30 AM48.2 °F44.6 °F87 %29.95 inVariable2.3 mphClear
1:00 AM53.0 °F46.0 °F68 %29.94 in12.0 miNW (310°)1.2 mphClear
1:00 AM50.0 °F44.6 °F82 %29.95 inNW (310°)2.3 mphClear
1:30 AM48.2 °F44.6 °F87 %29.92 inWNW (290°)5.8 mphClear
2:00 AM48.2 °F44.6 °F87 %29.92 inWNW (290°)5.8 mphClear
2:30 AM46.4 °F42.8 °F87 %29.92 inWNW (300°)4.6 mphClear
3:00 AM48.2 °F42.8 °F82 %29.92 inWNW (290°)6.9 mphClear
3:30 AM46.4 °F42.8 °F87 %29.89 inNW (310°)4.6 mphClear
4:00 AM46.4 °F42.8 °F87 %29.89 inWNW (300°)8.1 mphClear
5:00 AM46.4 °F42.8 °F87 %29.86 inWNW (290°)9.2 mphClear
5:30 AM44.6 °F42.8 °F93 %29.86 inWNW (290°)8.1 mphClear
6:00 AM44.6 °F42.8 °F93 %29.86 inWNW (290°)9.2 mphClear
6:30 AM44.6 °F42.8 °F93 %29.86 in6.2 miNW (310°)4.6 mphScattered Clouds
7:00 AM47.0 °F43.0 °F82 %29.88 in12.0 miWNW (290°)9.2 mphPartly Cloudy
7:00 AM44.6 °F42.8 °F93 %29.89 in6.2 miWNW (290°)9.2 mphScattered Clouds
7:30 AM44.6 °F42.8 °F93 %29.89 in6.2 miWNW (290°)6.9 mphPartly Cloudy
8:00 AM46.4 °F42.8 °F87 %29.89 in6.2 miWNW (290°)8.1 mphPartly Cloudy
8:30 AM48.2 °F44.6 °F87 %29.89 in6.2 miWest (280°)4.6 mphPartly Cloudy
9:00 AM50.0 °F44.6 °F82 %29.89 in6.2 miWNW (290°)4.6 mphPartly Cloudy
9:30 AM53.6 °F44.6 °F72 %29.89 in6.2 miWest (280°)6.9 mphPartly Cloudy
10:00 AM55.4 °F44.6 °F67 %29.89 in6.2 miWNW (290°)4.6 mphPartly Cloudy
10:30 AM60.8 °F42.8 °F52 %29.89 in6.2 miCalmPartly Cloudy
11:00 AM62.6 °F44.6 °F52 %29.89 in6.2 miVariable1.2 mphScattered Clouds
11:30 AM62.6 °F50.0 °F63 %29.89 in6.2 miEast (90°)4.6 mphScattered Clouds
12:00 PM60.8 °F51.8 °F72 %29.86 in6.2 miSSE (160°)9.2 mphMostly Cloudy
12:40 PM59.0 °F55.4 °F88 %29.89 in3.7 miWNW (300°)9.2 mphRainRain Showers
1:00 PM59.0 °F55.0 °F82 %29.90 in4.0 miWest (280°)9.2 mphRainLight Rain
1:00 PM57.2 °F55.4 °F94 %29.89 in5.0 miWest (280°)9.2 mphRainLight Rain
1:30 PM59.0 °F55.4 °F88 %29.89 in6.2 miWest (280°)8.1 mphMostly Cloudy
2:00 PM59.0 °F53.6 °F82 %29.89 in6.2 miSW (230°)3.5 mphRainLight Rain
2:10 PM59.0 °F53.6 °F82 %29.89 in5.6 miSW (230°)3.5 mphRainRain
2:30 PM57.2 °F53.6 °F88 %29.86 in5.6 miVariable2.3 mphRainLight Rain
3:00 PM59.0 °F53.6 °F82 %29.83 in6.2 miSE (140°)2.3 mphRainLight Rain
3:30 PM59.0 °F53.6 °F82 %29.83 in6.2 miSE (140°)3.5 mphMostly Cloudy
4:00 PM57.2 °F53.6 °F88 %29.86 in6.2 miSouth (170°)5.8 mphRainLight Rain
4:30 PM59.0 °F53.6 °F82 %29.83 in6.2 miSouth (180°)5.8 mphMostly Cloudy
5:00 PM59.0 °F53.6 °F82 %29.83 in6.2 miSouth (170°)4.6 mphMostly Cloudy
5:30 PM59.0 °F51.8 °F77 %29.83 in6.2 miSSW (210°)5.8 mphRainLight Rain
6:00 PM59.0 °F53.6 °F82 %29.83 in6.2 miNNE (20°)3.5 mphMostly Cloudy
6:30 PM59.0 °F51.8 °F77 %29.83 in6.2 miVariable2.3 mphScattered Clouds
7:00 PM59.0 °F52.0 °F71 %29.84 in9.0 mi°2.3 mphPartly Cloudy
7:00 PM59.0 °F53.6 °F82 %29.83 in6.2 miVariable2.3 mphPartly Cloudy
7:30 PM57.2 °F53.6 °F88 %29.83 in6.2 miVariable1.2 mphScattered Clouds
8:00 PM55.4 °F51.8 °F88 %29.83 in6.2 miCalmScattered Clouds
8:30 PM55.4 °F53.6 °F94 %29.83 in6.2 miCalmScattered Clouds
9:00 PM57.2 °F53.6 °F88 %29.83 in6.2 miVariable1.2 mphScattered Clouds
9:30 PM55.4 °F51.8 °F88 %29.86 in6.2 miVariable1.2 mphPartly Cloudy
10:00 PM51.8 °F50.0 °F94 %29.86 in6.2 miWNW (300°)1.2 mphPartly Cloudy
10:30 PM53.6 °F51.8 °F94 %29.86 in6.2 miWSW (250°)1.2 mphPartly Cloudy
11:00 PM51.8 °F50.0 °F94 %29.86 in6.2 miVariable1.2 mphPartly Cloudy
11:30 PM50.0 °F48.2 °F94 %29.83 in6.2 miVariable2.3 mphPartly Cloudy
Hourly data recorded from LEMG, located miles away from Málaga, Spain







STORIES FROM OUR PARTNERS